User: anonymous   Login
Location: Unspecified
(0.0000°N, 0.0000°E)
Time: 12:57:10
(UTC+00:00)
Language:

Tiangong 1 - Orbit

View from above orbital plane
View from above orbital plane
View from above satellite
View from above satellite

Ground track
Ground track

The orbit data is extracted from the following two-line orbital elements,

1 37820U 11053A   16146.12951536  .00014558  00000-0  16188-3 0  9990
2 37820  42.7646  25.1812 0014510 248.1619 243.0186 15.62566892266976
Epoch (UTC): 25 May 2016 03:06:30
Eccentricity: 0.0014510
inclination: 42.7646°
perigee height: 370 km
apogee height: 390 km
right ascension of ascending node: 25.1812°
argument of perigee: 248.1619°
revolutions per day: 15.62566892
mean anomaly at epoch: 243.0186°
orbit number at epoch: 26697

The dashed part of the orbit path shows where the satellite is in the earth's shadow,  

DLR